Stations météo

réclame
Mon MeteoGroup
Lechfeld, Allemagne (10856): Température de l'air & dewpoint: 16.10.2017 04:00:00 - 22.10.2017 04:00:00 (CEST)Lechfeld, Allemagne (10856): Vitesse du vent & gusts: 16.10.2017 04:00:00 - 22.10.2017 04:00:00 (CEST)Lechfeld, Allemagne (10856): Direction du vent: 16.10.2017 04:00:00 - 22.10.2017 04:00:00 (CEST)Lechfeld, Allemagne (10856): reduced air pressure: 16.10.2017 04:00:00 - 22.10.2017 04:00:00 (CEST)Lechfeld, Allemagne (10856): visibility: 16.10.2017 04:00:00 - 22.10.2017 04:00:00 (CEST)
Date & Time tt [°C] td [°C] ff [km/h] ff [knt] fx [km/h] fx [knt] dd ppp [hPa] vv [km]
22.10.2017 04:00:00 8,9 7,4 11 6 - - SW 1019,8 17
22.10.2017 03:00:00 9,5 7,9 22 12 - - WSW 1020,4 17
22.10.2017 02:00:00 9,2 8,1 14 8 - - WSW 1020,3 16
22.10.2017 01:00:00 9,2 8,4 14 8 - - SW 1020,4 5
22.10.2017 00:00:00 9,3 7,7 11 6 47 25 WNW 1018,6 45
21.10.2017 23:00:00 11,6 8,4 25 14 - - WNW 1017,5 75
21.10.2017 22:00:00 12,4 10,4 7 4 - - SSW 1015,5 30
21.10.2017 21:00:00 12,3 10,6 7 4 - - SSW 1015,5 26
21.10.2017 20:00:00 13,2 10,4 4 2 - - SE 1015,4 40
21.10.2017 19:00:00 14,3 10,8 7 4 - - SSE 1015,4 40
21.10.2017 18:00:00 16,6 10,8 7 4 - - SSW 1015,2 65
21.10.2017 17:00:00 17,9 10,6 14 8 - - WSW 1015,3 45
21.10.2017 16:00:00 18,3 10,4 18 10 - - WSW 1015,3 50
21.10.2017 15:00:00 18,4 10,5 25 14 - - SW 1015,7 50
21.10.2017 14:00:00 18,3 10,3 25 14 - - SW 1016,1 50
21.10.2017 13:00:00 18,3 11,2 22 12 - - SW 1016,5 26
21.10.2017 12:00:00 16,9 11,4 14 8 - - SW 1017,3 16
21.10.2017 11:00:00 15,1 11,3 11 6 - - SSW 1018,0 29
21.10.2017 10:00:00 14,1 11,3 7 4 - - SW 1018,1 29
21.10.2017 09:00:00 12,4 11,8 7 4 - - S 1018,1 24
21.10.2017 08:00:00 12,3 11,1 7 4 - - S 1017,8 23
21.10.2017 07:00:00 - - - - - - - - -
21.10.2017 06:00:00 13,2 9,9 14 8 - - SSW 1017,4 20
21.10.2017 05:00:00 13,3 8,9 11 6 - - S 1017,1 20
21.10.2017 04:00:00 12,8 9,2 14 8 - - S 1017,4 20
21.10.2017 03:00:00 12,5 9,6 11 6 - - S 1017,7 20
21.10.2017 02:00:00 13,4 9,6 7 4 - - S 1017,9 30
21.10.2017 01:00:00 13,5 9,9 7 4 - - S 1017,9 30
21.10.2017 00:00:00 14,5 9,9 11 6 - - SSW 1017,7 30
20.10.2017 23:00:00 14,0 9,2 11 6 - - SSW 1017,9 30
20.10.2017 22:00:00 13,7 8,9 7 4 - - SSW 1017,9 30
20.10.2017 21:00:00 15,0 8,7 14 8 - - SW 1017,5 30
20.10.2017 20:00:00 16,2 8,0 11 6 - - SW 1016,7 30
20.10.2017 19:00:00 17,3 6,5 18 10 - - SW 1016,1 30
20.10.2017 18:00:00 18,4 6,4 14 8 - - SW 1015,3 40
20.10.2017 17:00:00 20,3 6,0 11 6 - - WSW 1014,6 40
20.10.2017 16:00:00 20,8 6,0 11 6 - - WSW 1014,2 40
20.10.2017 15:00:00 21,2 5,9 14 8 - - WSW 1014,2 30
20.10.2017 14:00:00 20,5 7,6 14 8 - - SW 1014,5 30
20.10.2017 13:00:00 19,6 7,3 14 8 - - SW 1014,8 30
20.10.2017 12:00:00 18,3 7,3 18 10 - - WSW 1015,2 25
20.10.2017 11:00:00 16,9 8,1 18 10 - - SW 1015,1 20
20.10.2017 10:00:00 13,3 7,8 11 6 - - SSW 1015,5 20
20.10.2017 09:00:00 6,2 5,7 7 4 - - S 1016,7 20
20.10.2017 08:00:00 4,6 4,1 4 2 - - S 1016,8 20
20.10.2017 07:00:00 6,6 6,1 11 6 - - S 1016,2 20
20.10.2017 06:00:00 5,3 4,6 4 2 - - SSW 1016,5 10
20.10.2017 05:00:00 6,0 5,8 7 4 - - SSW 1016,0 4,0
20.10.2017 04:00:00 5,3 5,2 7 4 - - SSW 1015,9 2,0
20.10.2017 03:00:00 5,2 5,1 0 0 - - N 1015,9 8
20.10.2017 02:00:00 7,1 6,9 4 2 - - WSW 1015,2 8
20.10.2017 01:00:00 6,2 5,9 0 0 - - N 1015,4 8
20.10.2017 00:00:00 8,0 7,6 0 0 - - N 1015,4 15
19.10.2017 23:00:00 8,5 8,0 7 4 - - NNE 1015,4 20
19.10.2017 22:00:00 8,4 7,9 0 0 - - N 1015,6 20
19.10.2017 21:00:00 10,9 9,4 7 4 - - N 1015,1 20
19.10.2017 20:00:00 11,5 9,7 7 4 - - NNE 1014,9 20
19.10.2017 19:00:00 14,2 10,2 7 4 - - NE 1014,0 20
19.10.2017 18:00:00 16,2 11,2 7 4 - - NNE 1013,4 30
19.10.2017 17:00:00 18,5 10,8 11 6 - - NE 1012,8 30
19.10.2017 16:00:00 18,9 8,7 7 4 - - NE 1013,1 30
19.10.2017 15:00:00 18,2 9,9 7 4 - - ENE 1013,7 25
19.10.2017 14:00:00 18,4 9,5 4 2 - - N 1014,1 25
19.10.2017 13:00:00 17,1 9,1 4 2 - - NNW 1015,2 25
19.10.2017 12:00:00 15,4 8,5 4 2 - - W 1015,7 25
19.10.2017 11:00:00 13,3 7,9 4 2 - - SSE 1016,1 25
19.10.2017 10:00:00 10,6 7,8 4 2 - - N 1016,7 25
19.10.2017 09:00:00 7,7 6,2 7 4 - - S 1017,0 25
19.10.2017 08:00:00 5,9 5,6 11 6 - - S 1017,1 20
19.10.2017 07:00:00 6,1 5,9 7 4 - - SSW 1017,2 15
19.10.2017 06:00:00 4,6 4,4 11 6 - - S 1017,7 15
19.10.2017 05:00:00 4,6 4,4 11 6 - - S 1017,7 20
19.10.2017 04:00:00 4,4 4,2 7 4 - - S 1017,9 25
19.10.2017 03:00:00 5,7 5,5 0 0 - - N 1018,0 25
19.10.2017 02:00:00 5,3 4,9 4 2 - - SSW 1018,1 25
19.10.2017 01:00:00 6,7 5,3 7 4 - - S 1017,6 25
19.10.2017 00:00:00 6,9 6,5 7 4 - - S 1017,3 25
18.10.2017 23:00:00 7,1 6,5 4 2 - - SSW 1017,5 25
18.10.2017 22:00:00 7,7 6,8 4 2 - - SSW 1017,3 30
18.10.2017 21:00:00 8,9 6,7 4 2 - - NE 1016,8 30
18.10.2017 20:00:00 10,5 7,6 4 2 - - E 1016,3 30
18.10.2017 19:00:00 15,0 7,0 4 2 - - NNW 1014,9 40
18.10.2017 18:00:00 17,6 6,0 7 4 - - N 1014,0 40
18.10.2017 17:00:00 19,4 9,6 11 6 - - N 1013,5 10
18.10.2017 16:00:00 20,0 8,6 7 4 - - NNE 1013,5 40
18.10.2017 15:00:00 19,9 7,7 7 4 - - N 1014,0 40
18.10.2017 14:00:00 19,5 10,3 4 2 - - ENE 1014,5 40
18.10.2017 13:00:00 17,9 9,0 4 2 - - WNW 1015,6 40
18.10.2017 12:00:00 16,7 8,3 4 2 - - SW 1016,2 40
18.10.2017 11:00:00 14,8 7,6 4 2 - - N 1016,9 40
18.10.2017 10:00:00 10,8 7,1 11 6 - - S 1018,0 40
18.10.2017 09:00:00 6,9 5,8 7 4 - - S 1019,1 40
18.10.2017 08:00:00 4,2 3,5 7 4 - - S 1019,6 40
18.10.2017 07:00:00 7,0 6,5 11 6 - - S 1019,0 40
18.10.2017 06:00:00 5,4 5,0 11 6 - - S 1019,7 40
18.10.2017 05:00:00 6,3 5,5 7 4 - - SSW 1019,9 30
18.10.2017 04:00:00 9,0 6,7 4 2 - - N 1019,5 30
18.10.2017 03:00:00 9,5 7,8 11 6 - - S 1019,6 30
18.10.2017 02:00:00 7,5 6,9 11 6 - - S 1020,5 30
18.10.2017 01:00:00 8,3 7,8 7 4 - - S 1020,5 30
18.10.2017 00:00:00 7,1 6,6 7 4 - - S 1021,1 30
17.10.2017 23:00:00 9,0 8,3 4 2 - - S 1020,7 30
17.10.2017 22:00:00 10,7 9,0 4 2 - - NW 1020,3 40
17.10.2017 21:00:00 11,1 9,2 4 2 - - SSE 1020,4 40
17.10.2017 20:00:00 13,0 9,8 4 2 - - E 1020,3 40
17.10.2017 19:00:00 15,7 9,8 4 2 - - E 1019,7 50
17.10.2017 18:00:00 19,2 9,7 7 4 - - NNE 1019,2 50
17.10.2017 17:00:00 21,2 8,3 4 2 - - E 1019,0 10
17.10.2017 16:00:00 22,1 7,7 4 2 - - E 1019,4 50
17.10.2017 15:00:00 21,2 8,5 4 2 - - NW 1020,3 50
17.10.2017 14:00:00 20,9 8,0 4 2 - - W 1021,4 50
17.10.2017 13:00:00 19,7 7,7 7 4 - - N 1022,7 50
17.10.2017 12:00:00 18,1 6,4 7 4 - - N 1023,7 30
17.10.2017 11:00:00 16,4 7,5 7 4 - - S 1024,3 30
17.10.2017 10:00:00 - - - - - - - - -
17.10.2017 09:00:00 9,0 6,5 7 4 - - S 1026,6 30
17.10.2017 08:00:00 6,4 4,5 4 2 - - SSW 1027,1 30
17.10.2017 07:00:00 7,9 6,3 14 8 - - S 1026,6 20
17.10.2017 06:00:00 5,8 5,1 4 2 - - S 1027,3 30
17.10.2017 05:00:00 7,7 6,6 11 6 - - S 1026,8 30
17.10.2017 04:00:00 7,5 6,2 7 4 - - S 1026,9 30
17.10.2017 03:00:00 8,8 7,8 11 6 - - S 1026,9 30
17.10.2017 02:00:00 9,0 7,8 11 6 - - S 1027,1 30
17.10.2017 01:00:00 8,9 7,7 7 4 - - S 1027,3 30
17.10.2017 00:00:00 8,8 7,1 7 4 - - S 1027,6 30
16.10.2017 23:00:00 10,2 9,3 11 6 - - S 1027,4 30
16.10.2017 22:00:00 9,7 8,6 4 2 - - SW 1027,5 30
16.10.2017 21:00:00 12,0 9,7 4 2 - - SSE 1026,9 30
16.10.2017 20:00:00 13,9 10,5 4 2 - - ESE 1026,5 50
16.10.2017 19:00:00 16,1 10,0 4 2 - - ENE 1025,8 60
16.10.2017 18:00:00 20,3 9,7 7 4 - - NNE 1024,6 60
16.10.2017 17:00:00 22,3 8,9 7 4 - - N 1024,2 50
16.10.2017 16:00:00 23,0 8,2 4 2 - - ENE 1024,1 50
16.10.2017 15:00:00 22,4 7,6 7 4 - - N 1024,5 50
16.10.2017 14:00:00 22,3 8,2 4 2 - - WSW 1024,9 50
16.10.2017 13:00:00 21,1 7,8 7 4 - - WSW 1025,6 50
16.10.2017 12:00:00 19,9 8,8 7 4 - - SSW 1026,2 50
16.10.2017 11:00:00 17,3 10,7 7 4 - - S 1026,9 50
16.10.2017 10:00:00 13,5 9,2 11 6 - - S 1027,7 50
16.10.2017 09:00:00 10,9 7,0 11 6 - - S 1028,1 50
16.10.2017 08:00:00 9,3 5,8 11 6 - - S 1028,2 50
16.10.2017 07:00:00 8,3 6,6 7 4 - - SSW 1028,6 20
16.10.2017 06:00:00 11,2 7,1 11 6 - - SSW 1027,9 20
16.10.2017 05:00:00 10,8 7,6 11 6 - - SSW 1027,7 15
16.10.2017 04:00:00 8,1 7,1 7 4 - - S 1028,4 13

tt = Température de l'air
td = dewpoint
ff = Vitesse du vent
fx = gusts
dd = Direction du vent
ppp = reduced air pressure
vv = visibility

stations d'obs. à proximité